Regional Weather Roundup
Issued by NWS Newport/Morehead, NC

Home | Current Version | Previous Version | Text Only | Print | Product List | Glossary On
Versions: 1 2 3 4 5 6 7 8 9 10 11 12 13 14 15 16 17 18 19 20 21 22 23 24 25 26 27 28 29 30 31 32 33 34 35 36 37 38 39 40 41 42 43 44 45 46 47 48 49 50
000
ASUS42 KMHX 201525
RWRMHX
WEATHER ROUNDUP FOR EASTERN NORTH CAROLINA
NATIONAL WEATHER SERVICE NEWPORT/MOREHEAD CITY NC
1000 AM EST MON FEB 20 2017

NOTE: "FAIR" INDICATES FEW OR NO CLOUDS BELOW 12,000 FEET
WITH NO SIGNIFICANT WEATHER AND/OR OBSTRUCTIONS TO VISIBILITY

NCZ015>017-031-032-045>047-102-103-201600-
NORTH COAST

CITY           SKY/WX    TMP DP  RH WIND       PRES   REMARKS
EDENTON        SUNNY     64  44  48 N9G16     30.23R
ELIZABETH CITY SUNNY     61  43  51 N13       30.21R
KITTY HAWK     NOT AVBL
MANTEO         SUNNY     57  44  62 NE15G22   30.20R

$$

NCZ045>047-081-094-103-104-201600-
CENTRAL COAST

CITY           SKY/WX    TMP DP  RH WIND       PRES   REMARKS
FRISCO         SUNNY     59  46  62 VRB6G18   30.18R HAZE

$$

NCZ095-097-098-100-101-201600-
SOUTHERN COAST

CITY           SKY/WX    TMP DP  RH WIND       PRES   REMARKS
BEAUFORT       SUNNY     65  46  50 NE12      30.20R
CEDAR ISLAND   NOT AVBL
JACKSONVILLE   SUNNY     62  46  55 NE8       30.20R
PINEY ISLAND   SUNNY    N/A N/A N/A N14       30.20R
WILMINGTON     SUNNY     64  45  49 NE7       30.19F


$$

NCZ011>013-027>030-043-044-078>080-089-090>093-098-201600-
COASTAL PLAIN

CITY           SKY/WX    TMP DP  RH WIND       PRES   REMARKS
AHOSKIE          N/A     61  39  44 N9        30.23S
CLINTON        SUNNY     64  45  50 NE6       30.22R
ELIZABETHTOWN  SUNNY     61  45  54 NE3       30.20F
GOLDSBORO      SUNNY     62  41  46 NE12      30.19F
GREENVILLE     SUNNY     66  41  39 NE10      30.23S
HAVELOCK       SUNNY     64  44  48 NE14      30.21R
KENANSVILLE    NOT AVBL
KINSTON        SUNNY     63  43  48 NE8       30.22S
NEW BERN       SUNNY     62  46  55 N8        30.22R
RICHLANDS      SUNNY     63  45  51 NE9       30.21S
ROCKY MOUNT    SUNNY     62  41  46 NE8       30.23S
WASHINGTON     SUNNY     63  42  46 NE12      30.22S
WHITEVILLE     MOSUNNY   63  44  49 NE5       30.20S

$$

AMZ130-135-150-152-154-156-158-170-250-252-270-ANZ085-086-088-633-658-670-201600-
MARINE OBSERVATIONS

STATION/POSITION TIME  TEMP    WIND        PRES    WAVE   SWELL
                       AIR SEA DIR/SP/G            HT/PER HT/PER
                 (UTC) (F)     (DEG/KT/KT) (MB)    (FT/S) (FT/S)
CHESAPEAKE LIGHT NOT AVBL
64 E VA BEACH    1450   52 51   10/ 14/ 16 1021.4    3/ 4
DUCK             1500   50 49   20/ 10/ 11 1022.4
2 E DUCK         1500      49                N/A     2/ 3
OREGON INLET     1500   53 51  360/ 14/ 18 1022.3
13E OREGON INLT  NOT AVBL
HATTERAS CG      1500   54 56   10/ 14/ 16 1022.0
DIAMOND BUOY     1450   59 64   20/ 16/ 21 1021.2    3/ 4   2/ 7
CAPE LOOKOUT     1500   61      30/ 15/ 19 1022.3
BEAUFORT LAB     1500   62 52   20/  8/ 12 1021.7
30 SE NEW RVR IN 1508   60      40/ 14/ 19 1022.4
30 SE NEW RVR IN 1513      63                N/A     3/ 4
27 SE WRIGHTSVLE 1508   59 61   50/ 14/ 17 1022.1
5 SE WRIGHTSVLE  1508   57 56   50/  6/ 10 1022.2
225 S CAPE HAT   1450   70 71   30/ 17/ 19 1019.4    6/ 6
41 SE CHARLESTON 1450   64 69   50/ 14/ 16 1021.0    2/ 3

$$



USA.gov is the U.S. government's official web portal to all federal, state and local government web resources and services.